Location: Corralito
(10.2667°N, 66.9500°W)
Time: 23:13:36
(UTC+00:00)

CZ-4B R/B - Visible Passes

Search period start: 04 December 2023 00:00
Search period end: 14 December 2023 00:00
Orbit: 809 x 881 km, 99.0° (Epoch: 04 December)

Date Brightness Start Highest point End Pass type
(mag) Time Alt. Az. Time Alt. Az. Time Alt. Az.
04 Dec 5.8 00:56:32 10° SSW 00:56:53 12° SSW 00:56:53 12° SSW visible
05 Dec 5.6 00:42:41 10° S 00:43:16 13° S 00:43:16 13° S visible
06 Dec 5.5 00:29:01 10° S 00:29:39 13° S 00:29:39 13° S visible
07 Dec 5.5 00:15:30 10° SSE 00:16:01 13° SSE 00:16:01 13° SSE visible
08 Dec 5.5 00:02:09 10° SSE 00:02:24 11° SSE 00:02:24 11° SSE visible
10 Dec 6.0 01:16:34 10° SSW 01:17:01 12° SSW 01:17:01 12° SSW visible
11 Dec 5.7 01:02:25 10° SSW 01:03:23 15° SSW 01:03:23 15° SSW visible
12 Dec 5.5 00:48:30 10° S 00:49:45 17° S 00:49:45 17° S visible
13 Dec 5.3 00:34:46 10° S 00:36:07 18° S 00:36:07 18° S visible
